Farmingdale, NY

6:49 PM EDT on March 22, 2017 (GMT -0400)
Republic

Weather History for KFRG - January, 2013

Change the Weather History Date:

Wednesday, January 16, 2013

  Actual Average Record
Temperature  
Mean Temperature 35 °F -  
Max Temperature 37 °F 34 °F 53 °F (2007)
Min Temperature 33 °F 21 °F 1 °F (2004)
Degree Days  
Heating Degree Days 30    
Moisture  
Dew Point 33 °F    
Average Humidity 93    
Maximum Humidity 100    
Minimum Humidity 87    
Precipitation  
Precipitation 0.49 in - - ()
Sea Level Pressure  
Sea Level Pressure 29.99 in    
Wind  
Wind Speed 7 mph (North)    
Max Wind Speed 13 mph    
Max Gust Speed 18 mph    
Visibility 5 miles    
Events Rain    
Averages and records for this station are not official NWS values.
T = Trace of Precipitation, MM = Missing Value Source: NWS Daily Summary

Daily Weather History Graph

Daily Weather History Graph

Search for Another Location

Airport or City:

Trip Planner

Search our weather history database for the weather conditions in past years. The results will help you decide how hot, cold, wet, or windy it might be!

Date:

Astronomy

Jan. 16, 2013 Rise Set
Actual Time 7:15 AM EST 4:52 PM EST
Civil Twilight 6:45 AM EST 5:22 PM EST
Nautical Twilight 6:11 AM EST 5:56 PM EST
Astronomical Twilight 5:38 AM EST 6:28 PM EST
Moon 9:47 AM EST (1/16) 10:43 PM EST (1/16)
Length of Visible Light 10h 37m
Length of Day
9h 37m
Waxing Crescent, 28% of the Moon is Illuminated
Jan 16
Waxing Crescent
Jan 18
First Quarter
Jan 26
Full
Feb 3
Last Quarter
Feb 10
New

Hourly Weather History & Observations

Time (EST) Temp. Windchill Dew Point Humidity Pressure Visibility Wind Dir Wind Speed Gust Speed Precip Events Conditions
12:53 AM 34.0 °F 28.8 °F 30.9 °F 89% 30.22 in 6.0 mi NE 5.8 mph - 0.03 in Rain Light Rain
1:53 AM 34.0 °F 27.2 °F 30.9 °F 89% 30.17 in 7.0 mi NNE 8.1 mph - 0.03 in Rain Light Rain
2:21 AM 33.8 °F 27.0 °F 30.2 °F 87% 30.18 in 5.0 mi NNE 8.1 mph - 0.01 in Rain Light Rain
3:53 AM 33.1 °F 26.1 °F 30.9 °F 92% 30.12 in 4.0 mi NE 8.1 mph - 0.06 in Rain Rain
4:06 AM 33.8 °F 25.8 °F 30.2 °F 87% 30.10 in 4.0 mi ENE 10.4 mph - 0.03 in Rain Rain
4:32 AM 33.8 °F 27.7 °F 32.0 °F 93% 30.11 in 3.0 mi NE 6.9 mph - 0.11 in Rain Rain
4:53 AM 33.1 °F 27.7 °F 32.0 °F 96% 30.10 in 4.0 mi NE 5.8 mph - 0.18 in Rain Rain
5:05 AM 33.8 °F 28.6 °F 32.0 °F 93% 30.11 in 4.0 mi NNE 5.8 mph - 0.04 in Rain Rain
5:53 AM 33.1 °F 26.9 °F 32.0 °F 96% 30.09 in 5.0 mi NE 6.9 mph - 0.12 in Rain Rain
6:53 AM 33.1 °F 27.7 °F 32.0 °F 96% 30.06 in 5.0 mi ENE 5.8 mph - 0.06 in Rain Light Rain
7:07 AM 33.8 °F 28.6 °F 32.0 °F 93% 30.05 in 6.0 mi ENE 5.8 mph - 0.01 in Rain Light Rain
7:53 AM 34.0 °F 28.0 °F 33.1 °F 96% 30.05 in 4.0 mi NNE 6.9 mph - 0.01 in Rain Light Rain
8:01 AM 33.8 °F 27.7 °F 33.8 °F 100% 30.05 in 2.5 mi NNE 6.9 mph - 0.00 in Rain Light Rain
8:26 AM 33.8 °F 29.6 °F 33.8 °F 100% 30.02 in 3.0 mi ENE 4.6 mph - 0.00 in Rain Light Rain
8:53 AM 34.0 °F 28.8 °F 33.1 °F 96% 30.01 in 6.0 mi NNE 5.8 mph - 0.00 in Rain Light Rain
9:53 AM 36.0 °F 32.1 °F 35.1 °F 97% 29.96 in 7.0 mi ENE 4.6 mph - 0.00 in   Overcast
10:53 AM 37.0 °F 32.4 °F 35.1 °F 93% 29.98 in 5.0 mi NNW 5.8 mph - 0.00 in Rain Light Rain
11:53 AM 37.0 °F 32.4 °F 35.1 °F 93% 29.93 in 6.0 mi NNW 5.8 mph - 0.00 in Rain Light Rain
12:53 PM 35.1 °F 29.3 °F 34.0 °F 96% 29.89 in 6.0 mi NNE 6.9 mph - 0.00 in   Overcast
2:53 PM 35.1 °F 27.9 °F 34.0 °F 96% 29.90 in 2.5 mi NNW 9.2 mph 17.3 mph 0.00 in Rain Light Rain
3:07 PM 35.6 °F 27.1 °F 33.8 °F 93% 29.90 in 1.5 mi NNW 12.7 mph 18.4 mph 0.00 in   Overcast
3:24 PM 35.6 °F 30.7 °F 33.8 °F 93% 29.87 in 2.5 mi North 5.8 mph - 0.00 in   Overcast
3:32 PM 35.6 °F 32.8 °F 33.8 °F 93% 29.86 in 3.0 mi North 3.5 mph - 0.00 in   Overcast
3:53 PM 35.1 °F 30.1 °F 34.0 °F 96% 29.89 in 2.5 mi North 5.8 mph - 0.00 in   Overcast
4:53 PM 35.1 °F 32.2 °F 34.0 °F 96% 29.90 in 2.5 mi Variable 3.5 mph - N/A   Overcast
5:53 PM 36.0 °F 31.1 °F 34.0 °F 93% 29.91 in 2.5 mi West 5.8 mph - N/A   Overcast
6:53 PM 36.0 °F 31.1 °F 35.1 °F 97% 29.91 in 2.5 mi SW 5.8 mph - N/A   Overcast
7:21 PM 37.4 °F 32.1 °F 35.6 °F 93% 29.90 in 5.0 mi WSW 6.9 mph - N/A   Overcast
7:37 PM 37.4 °F 31.4 °F 35.6 °F 93% 29.90 in 6.0 mi WSW 8.1 mph - N/A   Overcast
7:53 PM 37.0 °F 29.3 °F 35.1 °F 93% 29.91 in 7.0 mi WSW 11.5 mph - N/A   Overcast
8:10 PM 37.4 °F 30.8 °F 35.6 °F 93% 29.90 in 8.0 mi West 9.2 mph - N/A   Overcast
8:53 PM 37.0 °F 29.3 °F 35.1 °F 93% 29.92 in 8.0 mi West 11.5 mph - N/A   Overcast
9:28 PM 37.4 °F 30.8 °F 33.8 °F 87% 29.92 in 9.0 mi West 9.2 mph - N/A   Overcast
9:53 PM 37.0 °F 30.4 °F 34.0 °F 89% 29.92 in 9.0 mi WSW 9.2 mph - N/A   Partly Cloudy
10:53 PM 37.0 °F 31.0 °F 34.0 °F 89% 29.92 in 8.0 mi West 8.1 mph - N/A   Clear
11:53 PM 37.0 °F 31.0 °F 34.0 °F 89% 29.91 in 9.0 mi West 8.1 mph - N/A   Clear